FW4685 Weather Reports


Display with metric or nautical units.
time (UTC)temp
F
wind
direction
speed
MPH
gust
MPH
rain 1hr
in
rain 24hr
in
rain mn
in
humidity
%
barometer
mb
20260901034027 51 71 0.0 0.0 0.00 0.00 0.00 91 1021.6
20260901033019 52 104 0.0 0.0 0.00 0.00 0.00 91 1021.4
20260901032112 52 84 0.0 0.0 0.00 0.00 0.00 90 1021.4
20260901031023 52 95 0.0 0.0 0.00 0.00 0.00 90 1021.4
20260901030020 53 93 0.0 0.0 0.00 0.00 0.00 89 1021.3
20260901025017 53 102 0.0 0.0 0.00 0.00 0.00 89 1021.3
20260901024026 54 103 0.0 0.0 0.00 0.00 0.00 88 1021.4
20260901023015 54 95 0.0 0.0 0.00 0.00 0.00 87 1021.5
20260901022029 55 103 0.0 0.0 0.00 0.00 0.00 86 1021.5
20260901021024 55 83 0.0 0.0 0.00 0.00 0.00 85 1021.5
20260901020018 56 102 0.0 0.0 0.00 0.00 0.00 84 1021.3
20260901015027 56 187 0.0 2.0 0.00 0.00 0.00 84 1021.4
20260901014024 56 293 0.0 0.0 0.00 0.00 0.00 83 1021.3
20260901013015 56 82 0.0 0.0 0.00 0.00 0.00 82 1021.5
20260901012109 57 44 0.0 2.0 0.00 0.00 0.00 81 1021.4
20260901011044 57 34 0.0 0.0 0.00 0.00 0.00 80 1021.3
20260901010018 58 341 0.0 2.0 0.00 0.00 0.00 79 1021.2
20260901005028 58 16 0.0 0.0 0.00 0.00 0.00 78 1021.3
20260901004024 59 40 0.0 0.0 0.00 0.00 0.00 77 1021.2
20260901003016 60 31 0.0 0.0 0.00 0.00 0.00 75 1021.1
20260901002028 60 309 0.0 5.0 0.00 0.00 0.00 75 1021.1
20260901001023 60 288 1.0 5.0 0.00 0.00 0.00 74 1021.2
20260901000031 61 275 0.0 2.0 0.00 0.00 0.00 73 1021.0
20260831235023 61 303 1.0 7.0 0.00 0.00 0.00 72 1021.1
20260831234030 62 321 1.0 7.0 0.00 0.00 0.00 71 1020.9
20260831233017 62 285 0.0 5.0 0.00 0.00 0.00 71 1021.0
20260831232045 62 312 0.0 5.0 0.00 0.00 0.00 70 1020.8
20260831231039 63 310 0.0 2.0 0.00 0.00 0.00 70 1020.9
20260831230017 63 313 1.0 5.0 0.00 0.00 0.00 69 1020.7
20260831225029 63 307 0.0 2.0 0.00 0.00 0.00 69 1020.7
20260831224023 63 309 1.0 5.0 0.00 0.00 0.00 68 1020.8
20260831223055 63 322 1.0 5.0 0.00 0.00 0.00 67 1020.8
20260831222027 63 299 1.0 7.0 0.00 0.00 0.00 69 1020.7
20260831221025 62 296 1.0 5.0 0.00 0.00 0.00 72 1020.6
20260831220017 62 62 0.0 0.0 0.00 0.00 0.00 72 1020.5
20260831215028 62 293 0.0 2.0 0.00 0.00 0.00 72 1020.5
20260831214043 63 355 0.0 2.0 0.00 0.00 0.00 73 1020.3
20260831213016 63 76 0.0 0.0 0.00 0.00 0.00 73 1020.3
20260831212028 63 294 0.0 5.0 0.00 0.00 0.00 72 1020.2
20260831211023 64 322 0.0 2.0 0.00 0.00 0.00 71 1020.0
20260831210016 64 14 0.0 5.0 0.00 0.00 0.00 71 1020.0
20260831205027 64 338 0.0 2.0 0.00 0.00 0.00 71 1019.9
20260831204023 64 53 0.0 0.0 0.00 0.00 0.00 70 1019.7
20260831203017 64 14 0.0 0.0 0.00 0.00 0.00 71 1019.6
20260831202028 64 284 0.0 2.0 0.00 0.00 0.00 71 1019.5
20260831201023 64 288 0.0 5.0 0.00 0.00 0.00 71 1019.4
20260831200017 65 64 0.0 0.0 0.00 0.00 0.00 71 1019.3
20260831195029 65 137 0.0 0.0 0.00 0.00 0.00 70 1019.0
20260831194043 66 282 0.0 2.0 0.00 0.00 0.00 69 1018.9
20260831193018 66 247 0.0 2.0 0.00 0.00 0.00 68 1018.8
20260831192027 67 329 0.0 5.0 0.00 0.00 0.00 67 1018.5
20260831191023 67 316 1.0 5.0 0.00 0.00 0.00 67 1018.5
20260831190029 67 288 0.0 5.0 0.00 0.00 0.00 66 1018.4
20260831185023 68 302 0.0 7.0 0.00 0.00 0.00 65 1018.3
20260831184039 68 303 0.0 7.0 0.00 0.00 0.00 64 1018.3
20260831183026 69 310 1.0 12.0 0.00 0.00 0.00 63 1018.1
20260831182043 70 320 1.0 15.0 0.00 0.00 0.00 62 1018.0
20260831181037 71 274 2.0 12.0 0.00 0.00 0.00 64 1017.8
20260831180027 71 325 2.0 10.0 0.00 0.00 0.00 62 1017.5
20260831175031 71 330 2.0 10.0 0.00 0.00 0.00 59 1017.4
20260831174028 72 320 2.0 12.0 0.00 0.00 0.00 59 1017.4
20260831173018 72 329 2.0 10.0 0.00 0.00 0.00 59 1017.1
20260831172017 72 328 3.0 10.0 0.00 0.00 0.00 59 1017.0
20260831171029 73 294 2.0 10.0 0.00 0.00 0.00 60 1016.9
20260831170023 74 316 2.0 10.0 0.00 0.00 0.00 60 1016.7
20260831165016 75 316 0.0 5.0 0.00 0.00 0.00 59 1016.5
20260831164029 76 273 1.0 5.0 0.00 0.00 0.00 57 1016.4
20260831163103 77 263 1.0 7.0 0.00 0.00 0.00 54 1016.2
20260831162021 78 296 2.0 7.0 0.00 0.00 0.00 51 1016.3
20260831161023 78 282 2.0 10.0 0.00 0.00 0.00 51 1016.3
20260831160031 79 327 2.0 12.0 0.00 0.00 0.00 51 1016.1
20260831155027 78 256 2.0 12.0 0.00 0.00 0.00 47 1016.0
20260831154023 76 309 2.0 12.0 0.00 0.00 0.00 45 1015.8
20260831153036 74 319 2.0 10.0 0.00 0.00 0.00 50 1015.7
20260831152029 73 346 1.0 5.0 0.00 0.00 0.00 56 1015.6
20260831151022 73 318 1.0 7.0 0.00 0.00 0.00 57 1015.6
20260831150047 74 328 2.0 7.0 0.00 0.00 0.00 57 1015.6
20260831145022 75 318 1.0 12.0 0.00 0.00 0.00 55 1015.5
20260831144031 75 302 1.0 12.0 0.00 0.00 0.00 54 1015.4
20260831143028 75 322 2.0 10.0 0.00 0.00 0.00 51 1015.3
20260831142026 76 328 1.0 5.0 0.00 0.00 0.00 53 1015.3
20260831141016 77 302 2.0 10.0 0.00 0.00 0.00 53 1015.1
20260831140027 78 308 2.0 12.0 0.00 0.00 0.00 51 1015.0
20260831135023 76 302 1.0 7.0 0.00 0.00 0.00 49 1014.8
20260831134016 75 302 2.0 7.0 0.00 0.00 0.00 53 1014.8
20260831133029 75 304 2.0 7.0 0.00 0.00 0.00 55 1014.9
20260831132023 74 3 2.0 12.0 0.00 0.00 0.00 56 1014.8
20260831131016 73 9 1.0 10.0 0.00 0.00 0.00 57 1014.7
20260831130027 73 325 3.0 7.0 0.00 0.00 0.00 60 1014.7
20260831125023 73 302 2.0 12.0 0.00 0.01 0.00 60 1014.6
20260831124017 73 332 2.0 10.0 0.00 0.01 0.00 58 1014.4
20260831123026 72 332 2.0 12.0 0.00 0.01 0.00 57 1014.3
20260831122024 72 285 4.0 12.0 0.00 0.01 0.00 60 1014.2
20260831121016 72 301 2.0 10.0 0.00 0.01 0.00 62 1014.1
20260831120023 73 330 3.0 10.0 0.00 0.01 0.00 63 1013.8
20260831115038 72 318 3.0 12.0 0.00 0.01 0.00 58 1013.6
20260831114109 71 353 2.0 7.0 0.00 0.01 0.00 58 1013.5
20260831112024 70 337 3.0 5.0 0.00 0.01 0.00 63 1013.2
20260831111523 70 301 3.0 12.0 0.00 0.01 0.00 64 1013.3
20260831110515 70 286 3.0 12.0 0.00 0.01 0.00 65 1013.0
20260831105526 70 313 3.0 12.0 0.00 0.01 0.00 63 1012.9
20260831104544 70 197 1.0 2.0 0.00 0.01 0.00 65 1013.0
20260831104022 70 287 2.0 10.0 0.00 0.01 0.00 65 1012.7
20260831103026 70 302 1.0 10.0 0.00 0.01 0.00 65 1012.6
20260831102023 70 324 1.0 10.0 0.00 0.01 0.00 67 1012.5
20260831101015 69 343 0.0 2.0 0.00 0.01 0.00 66 1012.4
20260831100029 69 303 3.0 7.0 0.00 0.01 0.00 68 1012.4
20260831095515 69 325 1.0 2.0 0.00 0.01 0.00 67 1012.6
20260831094515 68 305 2.0 10.0 0.00 0.01 0.00 69 1012.2
20260831093528 67 325 2.0 12.0 0.00 0.01 0.00 70 1012.1
20260831092019 65 286 1.0 7.0 0.00 0.01 0.00 73 1011.8
20260831091044 65 343 1.0 10.0 0.00 0.01 0.00 75 1011.7
20260831090017 65 293 2.0 7.0 0.00 0.01 0.00 75 1011.7
20260831085028 65 326 1.0 7.0 0.00 0.01 0.00 76 1011.5
20260831084019 64 336 2.0 10.0 0.00 0.01 0.00 76 1011.4
20260831083037 64 91 1.0 10.0 0.00 0.01 0.00 77 1011.1
20260831082028 64 327 2.0 10.0 0.00 0.01 0.00 77 1011.0
20260831081030 63 270 2.0 7.0 0.00 0.01 0.00 78 1010.9
20260831080017 63 310 3.0 12.0 0.00 0.01 0.00 79 1010.8
20260831075048 62 339 2.0 12.0 0.00 0.01 0.00 79 1010.5
20260831074027 62 313 1.0 7.0 0.00 0.01 0.00 80 1010.3
20260831073025 62 297 1.0 7.0 0.00 0.01 0.00 80 1010.2
20260831072016 62 315 1.0 7.0 0.00 0.01 0.00 81 1010.2
20260831071027 61 333 0.0 5.0 0.00 0.01 0.00 81 1010.2
20260831070022 61 80 0.0 2.0 0.00 0.01 0.00 80 1010.0
20260831065018 61 183 0.0 5.0 0.00 0.01 0.00 80 1010.0
20260831064023 60 269 1.0 7.0 0.00 0.01 0.00 82 1009.8
20260831063016 59 191 0.0 5.0 0.00 0.01 0.00 83 1009.6
20260831062024 58 49 0.0 5.0 0.00 0.01 0.00 85 1009.5
20260831061031 57 303 0.0 5.0 0.00 0.01 0.00 88 1009.2
20260831060030 56 340 0.0 5.0 0.00 0.01 0.00 89 1009.1
20260831055027 56 250 0.0 2.0 0.00 0.01 0.00 90 1009.0
20260831054022 56 287 0.0 5.0 0.00 0.01 0.00 90 1008.7
20260831053031 56 56 0.0 5.0 0.00 0.01 0.00 89 1008.6
20260831052028 57 119 0.0 2.0 0.00 0.01 0.00 89 1008.7
20260831051021 57 206 0.0 2.0 0.00 0.01 0.00 89 1008.4
20260831050023 57 322 0.0 5.0 0.00 0.01 0.00 89 1008.4
20260831045019 57 81 0.0 2.0 0.00 0.01 0.00 88 1008.2
20260831044046 57 277 0.0 2.0 0.00 0.01 0.00 88 1008.1
20260831043042 57 302 1.0 7.0 0.00 0.01 0.00 88 1007.9
20260831042017 57 195 0.0 5.0 0.00 0.01 0.00 88 1008.0
20260831041026 58 35 0.0 5.0 0.00 0.01 0.00 88 1008.0
20260831040023 58 144 0.0 2.0 0.00 0.01 0.00 88 1007.9
20260831035111 58 62 0.0 2.0 0.00 0.01 0.00 87 1007.7